Location: Marengo
(51.4813°N, 109.7825°W)
Time: 00:08:52
(UTC+00:00)

Envisat - Pass Details

Date: 24 January 2022
Orbit: 764 x 765 km, 98.2° (Epoch: 22 May)

Event Time Altitude Azimuth Distance (km) Brightness Sun altitude
Rises 12:10:41 0° 16° (NNE) 3,244 6.5 -27.3°
Reaches altitude 10° 12:13:01 10° 19° (NNE) 2,313 5.7 -27.0°
Maximum altitude 12:18:06 67° 102° (ESE) 831 3.3 -26.2°
Drops below altitude 10° 12:23:09 10° 185° (S) 2,297 5.4 -25.4°
Sets 12:25:27 0° 188° (S) 3,219 6.1 -25.0°
